| time (UTC) | temp F | wind direction | speed MPH | gust MPH | rain 1hr in | rain 24hr in | rain mn in | humidity % | barometer mb |
| 20260508043552 | 40 | 134 | 0.0 | 0.0 | 0.00 | 0.08 | 0.00 | 81 | 1014.5 |
| 20260508043101 | 41 | 134 | 0.0 | 0.0 | 0.00 | 0.08 | 0.00 | 80 | 1014.5 |
| 20260508042550 | 41 | 134 | 0.0 | 0.0 | 0.00 | 0.08 | 0.00 | 79 | 1014.5 |
| 20260508042049 | 41 | 134 | 0.0 | 0.0 | 0.00 | 0.08 | 0.00 | 79 | 1014.4 |
| 20260508041548 | 41 | 134 | 0.0 | 0.0 | 0.00 | 0.08 | 0.00 | 79 | 1014.4 |
| 20260508041047 | 42 | 134 | 0.0 | 0.0 | 0.00 | 0.08 | 0.00 | 78 | 1014.3 |
| 20260508040546 | 42 | 134 | 0.0 | 0.0 | 0.00 | 0.08 | 0.00 | 77 | 1014.3 |
| 20260508040044 | 42 | 134 | 0.0 | 0.0 | 0.00 | 0.08 | 0.00 | 76 | 1014.3 |
| 20260508035543 | 43 | 134 | 0.0 | 0.0 | 0.00 | 0.10 | 0.08 | 76 | 1014.3 |
| 20260508035042 | 43 | 134 | 0.0 | 0.0 | 0.00 | 0.10 | 0.08 | 74 | 1014.2 |
| 20260508034541 | 43 | 134 | 0.0 | 0.0 | 0.00 | 0.10 | 0.08 | 73 | 1014.2 |
| 20260508034039 | 44 | 134 | 0.0 | 0.0 | 0.00 | 0.10 | 0.08 | 72 | 1014.1 |
| 20260508033538 | 44 | 134 | 0.0 | 0.0 | 0.00 | 0.10 | 0.08 | 70 | 1014.0 |
| 20260508033038 | 45 | 134 | 0.0 | 0.0 | 0.00 | 0.10 | 0.08 | 70 | 1014.0 |
| 20260508032536 | 45 | 134 | 0.0 | 0.0 | 0.00 | 0.10 | 0.08 | 67 | 1014.0 |
| 20260508032038 | 45 | 134 | 0.0 | 0.0 | 0.00 | 0.10 | 0.08 | 66 | 1014.0 |
| 20260508031534 | 46 | 134 | 0.0 | 0.0 | 0.00 | 0.10 | 0.08 | 64 | 1013.9 |
| 20260508031034 | 46 | 134 | 0.0 | 0.0 | 0.00 | 0.10 | 0.08 | 62 | 1013.7 |
| 20260508030532 | 46 | 134 | 0.0 | 1.0 | 0.00 | 0.10 | 0.08 | 62 | 1013.8 |
| 20260508030037 | 46 | 134 | 0.0 | 1.0 | 0.00 | 0.10 | 0.08 | 60 | 1013.7 |
| 20260508025532 | 47 | 143 | 0.0 | 0.0 | 0.00 | 0.13 | 0.08 | 60 | 1013.7 |
| 20260508025030 | 47 | 143 | 0.0 | 0.0 | 0.00 | 0.13 | 0.08 | 59 | 1013.6 |
| 20260508024535 | 47 | 143 | 0.0 | 0.0 | 0.00 | 0.13 | 0.08 | 59 | 1013.5 |
| 20260508024029 | 48 | 143 | 0.0 | 0.0 | 0.00 | 0.13 | 0.08 | 58 | 1013.5 |
| 20260508023530 | 48 | 143 | 0.0 | 3.0 | 0.00 | 0.13 | 0.08 | 58 | 1013.5 |
| 20260508023030 | 48 | 136 | 0.0 | 3.0 | 0.00 | 0.13 | 0.08 | 57 | 1013.5 |
| 20260508022531 | 48 | 113 | 0.0 | 2.0 | 0.00 | 0.13 | 0.08 | 58 | 1013.4 |
| 20260508022032 | 48 | 86 | 0.0 | 2.0 | 0.00 | 0.13 | 0.08 | 57 | 1013.2 |
| 20260508021534 | 48 | 169 | 0.0 | 0.0 | 0.00 | 0.13 | 0.08 | 57 | 1013.2 |
| 20260508021031 | 48 | 147 | 0.0 | 0.0 | 0.00 | 0.13 | 0.08 | 57 | 1013.2 |
| 20260508020528 | 49 | 147 | 0.0 | 1.0 | 0.00 | 0.13 | 0.08 | 56 | 1013.1 |
| 20260508020027 | 49 | 147 | 0.0 | 1.0 | 0.00 | 0.13 | 0.08 | 57 | 1013.0 |
| 20260508015527 | 49 | 227 | 0.0 | 1.0 | 0.00 | 0.14 | 0.08 | 57 | 1012.9 |
| 20260508015027 | 49 | 227 | 0.0 | 2.0 | 0.00 | 0.14 | 0.08 | 55 | 1012.9 |
| 20260508014527 | 50 | 56 | 0.0 | 4.0 | 0.00 | 0.14 | 0.08 | 56 | 1012.9 |
| 20260508014027 | 50 | 323 | 1.0 | 4.0 | 0.00 | 0.14 | 0.08 | 57 | 1012.8 |
| 20260508013526 | 50 | 212 | 0.0 | 4.0 | 0.00 | 0.14 | 0.08 | 53 | 1012.8 |
| 20260508013036 | 51 | 225 | 0.0 | 4.0 | 0.00 | 0.14 | 0.08 | 55 | 1012.6 |
| 20260508012525 | 51 | 252 | 0.0 | 3.0 | 0.00 | 0.14 | 0.08 | 52 | 1012.6 |
| 20260508012025 | 51 | 240 | 0.0 | 3.0 | 0.00 | 0.14 | 0.08 | 51 | 1012.4 |
| 20260508011526 | 51 | 158 | 0.0 | 4.0 | 0.00 | 0.14 | 0.08 | 51 | 1012.4 |
| 20260508011026 | 51 | 251 | 1.0 | 3.0 | 0.00 | 0.14 | 0.08 | 50 | 1012.3 |
| 20260508010524 | 52 | 251 | 1.0 | 3.0 | 0.00 | 0.14 | 0.08 | 55 | 1012.2 |
| 20260508010025 | 52 | 91 | 0.0 | 5.0 | 0.00 | 0.14 | 0.08 | 51 | 1012.2 |
| 20260508005527 | 52 | 246 | 1.0 | 5.0 | 0.00 | 0.14 | 0.08 | 52 | 1012.2 |
| 20260508005026 | 52 | 350 | 1.0 | 3.0 | 0.00 | 0.14 | 0.08 | 52 | 1012.1 |
| 20260508004535 | 52 | 269 | 0.0 | 6.0 | 0.00 | 0.14 | 0.08 | 54 | 1012.1 |
| 20260508004023 | 52 | 263 | 0.0 | 3.0 | 0.00 | 0.14 | 0.08 | 54 | 1012.0 |
| 20260508003523 | 53 | 42 | 0.0 | 3.0 | 0.00 | 0.14 | 0.08 | 53 | 1011.9 |
| 20260508003024 | 53 | 145 | 0.0 | 3.0 | 0.00 | 0.14 | 0.08 | 54 | 1011.9 |
| 20260508002524 | 53 | 238 | 0.0 | 3.0 | 0.00 | 0.14 | 0.08 | 53 | 1011.8 |
| 20260508002023 | 53 | 153 | 0.0 | 2.0 | 0.00 | 0.14 | 0.08 | 50 | 1011.8 |
| 20260508001522 | 54 | 213 | 0.0 | 5.0 | 0.00 | 0.14 | 0.08 | 53 | 1011.6 |
| 20260508001022 | 54 | 271 | 1.0 | 4.0 | 0.00 | 0.14 | 0.08 | 50 | 1011.5 |
| 20260508000522 | 55 | 225 | 0.0 | 6.0 | 0.00 | 0.14 | 0.08 | 49 | 1011.4 |
| 20260508000021 | 55 | 247 | 2.0 | 6.0 | 0.00 | 0.14 | 0.08 | 47 | 1011.3 |
| 20260507235524 | 55 | 244 | 1.0 | 6.0 | 0.00 | 0.14 | 0.08 | 48 | 1011.3 |
| 20260507235023 | 55 | 291 | 1.0 | 8.0 | 0.00 | 0.14 | 0.08 | 49 | 1011.3 |
| 20260507234522 | 56 | 222 | 3.0 | 8.0 | 0.00 | 0.14 | 0.08 | 47 | 1011.3 |
| 20260507234022 | 56 | 180 | 2.0 | 8.0 | 0.00 | 0.14 | 0.08 | 48 | 1011.2 |
| 20260507233520 | 56 | 249 | 1.0 | 7.0 | 0.00 | 0.14 | 0.08 | 48 | 1011.2 |
| 20260507233033 | 56 | 269 | 2.0 | 7.0 | 0.00 | 0.14 | 0.08 | 48 | 1011.1 |
| 20260507232522 | 56 | 242 | 2.0 | 4.0 | 0.00 | 0.14 | 0.08 | 52 | 1011.1 |
| 20260507232019 | 56 | 69 | 1.0 | 4.0 | 0.00 | 0.14 | 0.08 | 49 | 1011.1 |
| 20260507231521 | 56 | 261 | 1.0 | 5.0 | 0.00 | 0.14 | 0.08 | 50 | 1011.0 |
| 20260507231021 | 56 | 223 | 2.0 | 5.0 | 0.00 | 0.14 | 0.08 | 50 | 1011.0 |
| 20260507230519 | 56 | 251 | 1.0 | 6.0 | 0.00 | 0.14 | 0.08 | 50 | 1011.0 |
| 20260507230019 | 57 | 91 | 0.0 | 6.0 | 0.00 | 0.14 | 0.08 | 50 | 1011.0 |
| 20260507225519 | 57 | 280 | 1.0 | 4.0 | 0.00 | 0.15 | 0.08 | 49 | 1010.8 |
| 20260507225019 | 57 | 179 | 0.0 | 5.0 | 0.00 | 0.15 | 0.08 | 51 | 1010.9 |
| 20260507224519 | 57 | 336 | 2.0 | 5.0 | 0.00 | 0.15 | 0.08 | 52 | 1010.8 |
| 20260507224019 | 57 | 65 | 1.0 | 5.0 | 0.00 | 0.15 | 0.08 | 48 | 1010.8 |
| 20260507223519 | 57 | 263 | 1.0 | 6.0 | 0.00 | 0.15 | 0.08 | 48 | 1010.8 |
| 20260507223018 | 58 | 252 | 0.0 | 7.0 | 0.00 | 0.15 | 0.08 | 47 | 1010.7 |
| 20260507222518 | 58 | 164 | 2.0 | 9.0 | 0.00 | 0.15 | 0.08 | 47 | 1010.8 |
| 20260507222018 | 59 | 90 | 3.0 | 9.0 | 0.00 | 0.15 | 0.08 | 48 | 1010.7 |
| 20260507221518 | 59 | 232 | 4.0 | 8.0 | 0.00 | 0.15 | 0.08 | 45 | 1010.7 |
| 20260507221015 | 60 | 227 | 1.0 | 8.0 | 0.00 | 0.15 | 0.08 | 50 | 1010.7 |
| 20260507220515 | 60 | 287 | 3.0 | 8.0 | 0.00 | 0.15 | 0.08 | 47 | 1010.6 |
| 20260507220115 | 59 | 229 | 3.0 | 7.0 | 0.00 | 0.15 | 0.08 | 48 | 1010.5 |
| 20260507215515 | 59 | 261 | 3.0 | 9.0 | 0.00 | 0.22 | 0.08 | 47 | 1010.5 |
| 20260507215014 | 59 | 74 | 3.0 | 9.0 | 0.00 | 0.22 | 0.08 | 45 | 1010.3 |
| 20260507214514 | 59 | 207 | 2.0 | 9.0 | 0.00 | 0.22 | 0.08 | 52 | 1010.3 |
| 20260507214018 | 59 | 62 | 1.0 | 9.0 | 0.00 | 0.22 | 0.08 | 49 | 1010.3 |
| 20260507213516 | 59 | 192 | 3.0 | 5.0 | 0.00 | 0.22 | 0.08 | 48 | 1010.3 |
| 20260507213014 | 59 | 32 | 1.0 | 8.0 | 0.00 | 0.22 | 0.08 | 49 | 1010.2 |
| 20260507212514 | 59 | 319 | 2.0 | 10.0 | 0.00 | 0.22 | 0.08 | 46 | 1010.2 |
| 20260507212013 | 59 | 242 | 4.0 | 10.0 | 0.00 | 0.22 | 0.08 | 49 | 1010.2 |
| 20260507211513 | 59 | 102 | 3.0 | 9.0 | 0.00 | 0.22 | 0.08 | 51 | 1010.2 |
| 20260507211013 | 59 | 277 | 4.0 | 9.0 | 0.00 | 0.22 | 0.08 | 47 | 1010.1 |
| 20260507210513 | 60 | 214 | 2.0 | 8.0 | 0.00 | 0.22 | 0.08 | 48 | 1010.1 |
| 20260507210031 | 60 | 58 | 3.0 | 12.0 | 0.00 | 0.22 | 0.08 | 48 | 1010.1 |
| 20260507205515 | 60 | 243 | 6.0 | 14.0 | 0.00 | 0.24 | 0.08 | 47 | 1010.0 |
| 20260507205013 | 60 | 237 | 4.0 | 14.0 | 0.00 | 0.24 | 0.08 | 47 | 1010.0 |
| 20260507204512 | 60 | 193 | 3.0 | 14.0 | 0.00 | 0.24 | 0.08 | 49 | 1010.0 |
| 20260507204012 | 60 | 235 | 2.0 | 9.0 | 0.00 | 0.24 | 0.08 | 51 | 1010.0 |
| 20260507203512 | 59 | 230 | 1.0 | 11.0 | 0.00 | 0.24 | 0.08 | 51 | 1010.0 |
| 20260507203011 | 60 | 57 | 2.0 | 11.0 | 0.00 | 0.24 | 0.08 | 47 | 1009.9 |
| 20260507202512 | 60 | 212 | 2.0 | 7.0 | 0.00 | 0.24 | 0.08 | 52 | 1010.0 |
| 20260507202010 | 60 | 308 | 2.0 | 9.0 | 0.00 | 0.24 | 0.08 | 47 | 1010.0 |
| 20260507201510 | 61 | 198 | 3.0 | 11.0 | 0.00 | 0.24 | 0.08 | 47 | 1010.1 |
| 20260507201010 | 61 | 230 | 2.0 | 11.0 | 0.00 | 0.24 | 0.08 | 49 | 1010.2 |
| 20260507200510 | 61 | 53 | 4.0 | 11.0 | 0.00 | 0.24 | 0.08 | 47 | 1010.2 |
| 20260507200010 | 61 | 213 | 5.0 | 9.0 | 0.00 | 0.24 | 0.08 | 51 | 1010.2 |
| 20260507195508 | 61 | 191 | 2.0 | 6.0 | 0.00 | 0.25 | 0.08 | 47 | 1010.2 |
| 20260507195007 | 60 | 162 | 2.0 | 8.0 | 0.00 | 0.25 | 0.08 | 53 | 1010.4 |
| 20260507194507 | 59 | 35 | 3.0 | 8.0 | 0.00 | 0.25 | 0.08 | 55 | 1010.5 |
| 20260507194005 | 59 | 216 | 2.0 | 7.0 | 0.00 | 0.25 | 0.08 | 51 | 1010.6 |
| 20260507193506 | 59 | 174 | 3.0 | 12.0 | 0.00 | 0.25 | 0.08 | 52 | 1010.6 |
| 20260507193006 | 60 | 257 | 5.0 | 12.0 | 0.00 | 0.25 | 0.08 | 51 | 1010.6 |
| 20260507192505 | 60 | 346 | 4.0 | 12.0 | 0.00 | 0.25 | 0.08 | 46 | 1010.5 |
| 20260507192005 | 60 | 234 | 5.0 | 12.0 | 0.00 | 0.25 | 0.08 | 48 | 1010.7 |
| 20260507191504 | 60 | 289 | 2.0 | 13.0 | 0.00 | 0.25 | 0.08 | 53 | 1010.5 |
| 20260507191004 | 60 | 231 | 5.0 | 13.0 | 0.00 | 0.25 | 0.08 | 52 | 1010.6 |
| 20260507190504 | 60 | 246 | 2.0 | 9.0 | 0.00 | 0.25 | 0.08 | 54 | 1010.6 |
| 20260507190005 | 60 | 223 | 2.0 | 12.0 | 0.00 | 0.25 | 0.08 | 56 | 1010.7 |
| 20260507185502 | 60 | 240 | 5.0 | 12.0 | 0.00 | 0.25 | 0.08 | 52 | 1010.7 |
| 20260507185002 | 60 | 153 | 2.0 | 10.0 | 0.00 | 0.25 | 0.08 | 54 | 1010.7 |
| 20260507184509 | 59 | 46 | 3.0 | 10.0 | 0.00 | 0.25 | 0.08 | 52 | 1010.6 |
| 20260507184100 | 59 | 244 | 3.0 | 10.0 | 0.00 | 0.25 | 0.08 | 54 | 1010.7 |
| 20260507183601 | 59 | 171 | 2.0 | 7.0 | 0.00 | 0.25 | 0.08 | 53 | 1010.8 |
| 20260507183059 | 59 | 306 | 2.0 | 12.0 | 0.00 | 0.25 | 0.08 | 56 | 1010.9 |
| 20260507182558 | 58 | 271 | 6.0 | 12.0 | 0.00 | 0.25 | 0.08 | 52 | 1010.9 |
| 20260507182058 | 59 | 212 | 2.0 | 12.0 | 0.00 | 0.25 | 0.08 | 56 | 1010.9 |
| 20260507181557 | 59 | 103 | 3.0 | 10.0 | 0.00 | 0.25 | 0.08 | 55 | 1010.8 |
| 20260507181056 | 58 | 241 | 2.0 | 10.0 | 0.00 | 0.25 | 0.08 | 54 | 1010.9 |
| 20260507180559 | 59 | 157 | 2.0 | 7.0 | 0.00 | 0.25 | 0.08 | 61 | 1011.0 |
| 20260507180100 | 58 | 22 | 1.0 | 10.0 | 0.00 | 0.25 | 0.08 | 60 | 1011.0 |
| 20260507175558 | 57 | 233 | 3.0 | 10.0 | 0.00 | 0.27 | 0.08 | 65 | 1011.0 |
| 20260507175055 | 56 | 196 | 3.0 | 6.0 | 0.00 | 0.27 | 0.08 | 58 | 1011.0 |
| 20260507174556 | 56 | 207 | 2.0 | 5.0 | 0.00 | 0.27 | 0.08 | 60 | 1011.1 |
| 20260507174053 | 57 | 232 | 2.0 | 7.0 | 0.00 | 0.27 | 0.08 | 60 | 1011.1 |
| 20260507173554 | 57 | 123 | 2.0 | 10.0 | 0.00 | 0.27 | 0.08 | 55 | 1011.3 |
| 20260507173053 | 58 | 350 | 4.0 | 10.0 | 0.00 | 0.27 | 0.08 | 57 | 1011.3 |
| 20260507172552 | 58 | 288 | 4.0 | 10.0 | 0.00 | 0.27 | 0.08 | 56 | 1011.1 |
| 20260507172053 | 58 | 233 | 4.0 | 8.0 | 0.00 | 0.27 | 0.08 | 55 | 1011.2 |
| 20260507171552 | 59 | 227 | 3.0 | 8.0 | 0.00 | 0.27 | 0.08 | 54 | 1011.4 |
| 20260507171051 | 59 | 271 | 2.0 | 6.0 | 0.00 | 0.27 | 0.08 | 64 | 1011.4 |
| 20260507170550 | 58 | 28 | 2.0 | 13.0 | 0.00 | 0.27 | 0.08 | 62 | 1011.4 |
| 20260507170048 | 58 | 209 | 2.0 | 14.0 | 0.00 | 0.27 | 0.08 | 60 | 1011.5 |
| 20260507165546 | 57 | 259 | 1.0 | 9.0 | 0.00 | 0.28 | 0.08 | 66 | 1011.7 |
| 20260507165045 | 56 | 216 | 2.0 | 9.0 | 0.00 | 0.28 | 0.08 | 65 | 1011.8 |
| 20260507164544 | 56 | 167 | 3.0 | 9.0 | 0.00 | 0.28 | 0.08 | 64 | 1011.8 |
| 20260507164045 | 56 | 236 | 4.0 | 8.0 | 0.00 | 0.28 | 0.08 | 64 | 1011.9 |
| 20260507163543 | 55 | 242 | 2.0 | 6.0 | 0.00 | 0.28 | 0.08 | 67 | 1012.0 |
| 20260507163042 | 55 | 51 | 0.0 | 7.0 | 0.00 | 0.28 | 0.08 | 66 | 1012.1 |
| 20260507162543 | 55 | 21 | 2.0 | 9.0 | 0.00 | 0.28 | 0.08 | 67 | 1012.1 |
| 20260507162041 | 55 | 269 | 4.0 | 9.0 | 0.00 | 0.28 | 0.08 | 64 | 1012.2 |
| 20260507161547 | 55 | 344 | 2.0 | 10.0 | 0.00 | 0.28 | 0.08 | 65 | 1012.2 |
| 20260507161042 | 55 | 222 | 5.0 | 10.0 | 0.00 | 0.28 | 0.08 | 65 | 1012.1 |
| 20260507160542 | 55 | 288 | 1.0 | 8.0 | 0.00 | 0.28 | 0.08 | 63 | 1012.1 |
| 20260507160042 | 55 | 237 | 0.0 | 9.0 | 0.00 | 0.28 | 0.08 | 70 | 1012.2 |
| 20260507155541 | 55 | 238 | 4.0 | 9.0 | 0.00 | 0.30 | 0.08 | 64 | 1012.3 |
| 20260507155041 | 55 | 214 | 2.0 | 10.0 | 0.00 | 0.30 | 0.08 | 63 | 1012.3 |
| 20260507154541 | 55 | 106 | 1.0 | 5.0 | 0.00 | 0.30 | 0.08 | 68 | 1012.4 |
| 20260507154040 | 55 | 36 | 2.0 | 5.0 | 0.00 | 0.30 | 0.08 | 66 | 1012.4 |
| 20260507153537 | 55 | 79 | 3.0 | 8.0 | 0.00 | 0.30 | 0.08 | 65 | 1012.4 |
| 20260507153042 | 55 | 32 | 2.0 | 8.0 | 0.00 | 0.30 | 0.08 | 65 | 1012.4 |
| 20260507152536 | 54 | 86 | 0.0 | 5.0 | 0.00 | 0.30 | 0.08 | 67 | 1012.4 |
| 20260507152035 | 54 | 200 | 2.0 | 7.0 | 0.00 | 0.30 | 0.08 | 67 | 1012.4 |
| 20260507151533 | 54 | 42 | 1.0 | 7.0 | 0.00 | 0.30 | 0.08 | 65 | 1012.3 |
| 20260507151033 | 54 | 44 | 1.0 | 8.0 | 0.00 | 0.30 | 0.08 | 67 | 1012.4 |
| 20260507150531 | 54 | 35 | 2.0 | 8.0 | 0.00 | 0.30 | 0.08 | 67 | 1012.4 |
| 20260507150031 | 53 | 28 | 1.0 | 7.0 | 0.00 | 0.30 | 0.08 | 70 | 1012.3 |
| 20260507145530 | 53 | 49 | 3.0 | 6.0 | 0.00 | 0.32 | 0.08 | 61 | 1012.4 |
| 20260507145029 | 52 | 5 | 1.0 | 6.0 | 0.00 | 0.32 | 0.08 | 69 | 1012.4 |
| 20260507144527 | 52 | 42 | 3.0 | 6.0 | 0.00 | 0.32 | 0.08 | 67 | 1012.5 |
| 20260507144025 | 52 | 355 | 1.0 | 6.0 | 0.00 | 0.32 | 0.08 | 75 | 1012.6 |
| 20260507143525 | 51 | 201 | 1.0 | 6.0 | 0.00 | 0.32 | 0.08 | 78 | 1012.7 |
| 20260507143026 | 51 | 236 | 0.0 | 4.0 | 0.00 | 0.32 | 0.08 | 81 | 1012.9 |
| 20260507142522 | 51 | 261 | 2.0 | 4.0 | 0.00 | 0.32 | 0.08 | 80 | 1013.0 |
| 20260507142021 | 51 | 227 | 1.0 | 4.0 | 0.00 | 0.32 | 0.08 | 83 | 1013.0 |
| 20260507141520 | 51 | 136 | 0.0 | 4.0 | 0.00 | 0.32 | 0.08 | 85 | 1013.1 |
| 20260507141019 | 50 | 281 | 0.0 | 4.0 | 0.00 | 0.32 | 0.08 | 85 | 1013.1 |
| 20260507140519 | 50 | 271 | 0.0 | 0.0 | 0.00 | 0.32 | 0.08 | 87 | 1013.1 |
| 20260507140018 | 50 | 287 | 0.0 | 0.0 | 0.00 | 0.32 | 0.08 | 89 | 1013.2 |
| 20260507135517 | 49 | 287 | 0.0 | 0.0 | 0.00 | 0.35 | 0.08 | 88 | 1013.2 |
| 20260507135017 | 49 | 248 | 0.0 | 0.0 | 0.00 | 0.35 | 0.08 | 89 | 1013.2 |
| 20260507134516 | 49 | 10 | 0.0 | 0.0 | 0.00 | 0.35 | 0.08 | 90 | 1013.2 |
| 20260507134015 | 49 | 239 | 0.0 | 0.0 | 0.00 | 0.35 | 0.08 | 91 | 1013.3 |
| 20260507133516 | 49 | 329 | 0.0 | 0.0 | 0.00 | 0.35 | 0.08 | 91 | 1013.3 |
| 20260507133018 | 48 | 329 | 0.0 | 0.0 | 0.00 | 0.35 | 0.08 | 91 | 1013.3 |
| 20260507132515 | 48 | 262 | 0.0 | 0.0 | 0.00 | 0.35 | 0.08 | 92 | 1013.3 |
| 20260507132014 | 48 | 260 | 0.0 | 0.0 | 0.00 | 0.35 | 0.08 | 92 | 1013.3 |
| 20260507131519 | 48 | 243 | 0.0 | 0.0 | 0.00 | 0.35 | 0.08 | 93 | 1013.4 |
| 20260507131014 | 48 | 155 | 0.0 | 0.0 | 0.00 | 0.35 | 0.08 | 94 | 1013.4 |
| 20260507130516 | 48 | 240 | 0.0 | 0.0 | 0.00 | 0.35 | 0.08 | 94 | 1013.4 |
| 20260507130022 | 48 | 226 | 0.0 | 0.0 | 0.00 | 0.35 | 0.08 | 95 | 1013.3 |
| 20260507125515 | 48 | 237 | 0.0 | 0.0 | 0.00 | 0.37 | 0.08 | 95 | 1013.3 |
| 20260507125017 | 48 | 240 | 0.0 | 0.0 | 0.00 | 0.37 | 0.08 | 95 | 1013.3 |
| 20260507124519 | 48 | 241 | 0.0 | 0.0 | 0.00 | 0.37 | 0.08 | 95 | 1013.4 |
| 20260507124013 | 48 | 216 | 0.0 | 0.0 | 0.00 | 0.37 | 0.08 | 95 | 1013.4 |
| 20260507123514 | 48 | 188 | 0.0 | 0.0 | 0.00 | 0.37 | 0.08 | 95 | 1013.4 |
| 20260507123013 | 47 | 173 | 0.0 | 0.0 | 0.00 | 0.37 | 0.08 | 95 | 1013.4 |
| 20260507122512 | 47 | 173 | 0.0 | 0.0 | 0.00 | 0.37 | 0.08 | 95 | 1013.5 |
| 20260507122012 | 47 | 173 | 0.0 | 0.0 | 0.00 | 0.37 | 0.08 | 95 | 1013.4 |
| 20260507121512 | 47 | 173 | 0.0 | 0.0 | 0.00 | 0.37 | 0.08 | 95 | 1013.5 |
| 20260507121012 | 47 | 190 | 0.0 | 0.0 | 0.00 | 0.37 | 0.08 | 95 | 1013.5 |
| 20260507120512 | 47 | 190 | 0.0 | 0.0 | 0.00 | 0.37 | 0.08 | 95 | 1013.5 |
| 20260507120019 | 47 | 205 | 0.0 | 0.0 | 0.00 | 0.37 | 0.08 | 95 | 1013.5 |
| 20260507115510 | 47 | 205 | 0.0 | 0.0 | 0.00 | 0.51 | 0.08 | 95 | 1013.4 |
| 20260507115013 | 47 | 205 | 0.0 | 0.0 | 0.00 | 0.51 | 0.08 | 95 | 1013.3 |
| 20260507114509 | 47 | 205 | 0.0 | 0.0 | 0.00 | 0.51 | 0.08 | 95 | 1013.2 |
| 20260507114018 | 47 | 205 | 0.0 | 0.0 | 0.00 | 0.51 | 0.08 | 95 | 1013.1 |
| 20260507113511 | 47 | 205 | 0.0 | 0.0 | 0.00 | 0.51 | 0.08 | 95 | 1013.1 |
| 20260507113008 | 47 | 265 | 0.0 | 0.0 | 0.00 | 0.51 | 0.08 | 95 | 1013.0 |
| 20260507112507 | 47 | 246 | 0.0 | 0.0 | 0.00 | 0.51 | 0.08 | 95 | 1012.9 |
| 20260507112007 | 47 | 246 | 0.0 | 1.0 | 0.00 | 0.51 | 0.08 | 95 | 1012.8 |
| 20260507111507 | 47 | 249 | 0.0 | 1.0 | 0.00 | 0.51 | 0.08 | 95 | 1012.7 |
| 20260507111006 | 47 | 255 | 0.0 | 0.0 | 0.00 | 0.51 | 0.08 | 95 | 1012.6 |
| 20260507110505 | 47 | 255 | 0.0 | 0.0 | 0.00 | 0.51 | 0.08 | 95 | 1012.5 |
| 20260507110005 | 47 | 255 | 0.0 | 0.0 | 0.00 | 0.51 | 0.08 | 95 | 1012.5 |
| 20260507105508 | 47 | 255 | 0.0 | 0.0 | 0.00 | 0.67 | 0.08 | 95 | 1012.4 |
| 20260507105004 | 47 | 255 | 0.0 | 0.0 | 0.00 | 0.67 | 0.08 | 95 | 1012.4 |
| 20260507104503 | 47 | 255 | 0.0 | 0.0 | 0.00 | 0.67 | 0.08 | 95 | 1012.4 |
| 20260507104006 | 47 | 255 | 0.0 | 0.0 | 0.00 | 0.67 | 0.08 | 95 | 1012.3 |
| 20260507103502 | 47 | 255 | 0.0 | 0.0 | 0.00 | 0.67 | 0.08 | 95 | 1012.3 |
| 20260507103002 | 47 | 255 | 0.0 | 0.0 | 0.00 | 0.67 | 0.08 | 95 | 1012.3 |
| 20260507102502 | 47 | 255 | 0.0 | 1.0 | 0.00 | 0.67 | 0.08 | 95 | 1012.4 |
| 20260507102003 | 47 | 255 | 0.0 | 3.0 | 0.00 | 0.67 | 0.08 | 95 | 1012.4 |
| 20260507101502 | 47 | 255 | 0.0 | 3.0 | 0.00 | 0.67 | 0.08 | 95 | 1012.4 |
| 20260507101002 | 47 | 304 | 0.0 | 0.0 | 0.00 | 0.67 | 0.08 | 95 | 1012.3 |
| 20260507100502 | 47 | 306 | 0.0 | 0.0 | 0.00 | 0.67 | 0.08 | 95 | 1012.3 |
| 20260507100001 | 47 | 306 | 0.0 | 0.0 | 0.00 | 0.67 | 0.08 | 95 | 1012.2 |
| 20260507095501 | 47 | 306 | 0.0 | 0.0 | 0.00 | 0.88 | 0.08 | 95 | 1012.1 |
| 20260507095002 | 47 | 306 | 0.0 | 0.0 | 0.00 | 0.88 | 0.08 | 95 | 1012.1 |
| 20260507094501 | 47 | 306 | 0.0 | 0.0 | 0.00 | 0.88 | 0.08 | 95 | 1012.2 |
| 20260507094103 | 47 | 307 | 0.0 | 0.0 | 0.00 | 0.88 | 0.08 | 95 | 1012.2 |
| 20260507093600 | 47 | 307 | 0.0 | 0.0 | 0.00 | 0.88 | 0.08 | 95 | 1012.1 |
| 20260507093111 | 46 | 307 | 0.0 | 0.0 | 0.00 | 0.88 | 0.08 | 95 | 1012.0 |
| 20260507092603 | 47 | 307 | 0.0 | 0.0 | 0.00 | 0.88 | 0.08 | 95 | 1011.9 |
| 20260507092059 | 47 | 307 | 0.0 | 0.0 | 0.00 | 0.88 | 0.08 | 95 | 1011.9 |
| 20260507091559 | 47 | 307 | 0.0 | 0.0 | 0.00 | 0.88 | 0.08 | 95 | 1012.0 |
| 20260507091102 | 47 | 307 | 0.0 | 0.0 | 0.00 | 0.88 | 0.08 | 95 | 1011.8 |
| 20260507090558 | 47 | 307 | 0.0 | 0.0 | 0.00 | 0.88 | 0.08 | 95 | 1011.9 |
| 20260507090058 | 47 | 307 | 0.0 | 0.0 | 0.00 | 0.88 | 0.08 | 95 | 1011.9 |
| 20260507085600 | 47 | 307 | 0.0 | 0.0 | 0.00 | 0.89 | 0.08 | 94 | 1012.1 |
| 20260507085100 | 47 | 307 | 0.0 | 0.0 | 0.00 | 0.89 | 0.08 | 95 | 1012.0 |
| 20260507084602 | 47 | 307 | 0.0 | 0.0 | 0.00 | 0.89 | 0.08 | 95 | 1012.0 |
| 20260507084058 | 47 | 307 | 0.0 | 0.0 | 0.00 | 0.89 | 0.08 | 94 | 1012.1 |
| 20260507083557 | 47 | 307 | 0.0 | 0.0 | 0.00 | 0.89 | 0.08 | 94 | 1012.1 |
| 20260507083101 | 47 | 307 | 0.0 | 0.0 | 0.01 | 0.89 | 0.08 | 94 | 1012.2 |
| 20260507082559 | 47 | 307 | 0.0 | 0.0 | 0.01 | 0.89 | 0.08 | 94 | 1012.1 |
| 20260507082102 | 47 | 27 | 0.0 | 0.0 | 0.01 | 0.89 | 0.08 | 94 | 1012.0 |
| 20260507081557 | 47 | 27 | 0.0 | 0.0 | 0.01 | 0.89 | 0.08 | 94 | 1011.9 |
| 20260507081058 | 47 | 27 | 0.0 | 0.0 | 0.02 | 0.89 | 0.08 | 94 | 1012.1 |
| 20260507080559 | 47 | 27 | 0.0 | 0.0 | 0.02 | 0.89 | 0.08 | 94 | 1012.1 |
| 20260507080113 | 47 | 27 | 0.0 | 0.0 | 0.02 | 0.89 | 0.08 | 94 | 1012.0 |
| 20260507075556 | 47 | 27 | 0.0 | 0.0 | 0.02 | 0.89 | 0.08 | 94 | 1012.1 |
| 20260507075056 | 47 | 19 | 0.0 | 4.0 | 0.02 | 0.89 | 0.08 | 94 | 1012.2 |
| 20260507074556 | 47 | 19 | 0.0 | 4.0 | 0.02 | 0.89 | 0.08 | 94 | 1012.1 |
| 20260507074055 | 47 | 46 | 2.0 | 9.0 | 0.02 | 0.89 | 0.08 | 94 | 1012.0 |
| 20260507073553 | 48 | 9 | 2.0 | 9.0 | 0.03 | 0.89 | 0.08 | 94 | 1011.9 |
| 20260507073052 | 48 | 42 | 1.0 | 8.0 | 0.02 | 0.88 | 0.07 | 95 | 1012.0 |
| 20260507072551 | 48 | 323 | 1.0 | 4.0 | 0.02 | 0.88 | 0.07 | 95 | 1011.9 |
| 20260507072052 | 48 | 10 | 0.0 | 1.0 | 0.02 | 0.88 | 0.07 | 95 | 1011.8 |
| 20260507071608 | 48 | 360 | 0.0 | 2.0 | 0.02 | 0.88 | 0.07 | 95 | 1011.8 |
| 20260507071050 | 48 | 40 | 0.0 | 2.0 | 0.01 | 0.87 | 0.06 | 95 | 1011.9 |
| 20260507070550 | 48 | 40 | 0.0 | 0.0 | 0.01 | 0.87 | 0.06 | 95 | 1011.8 |
| 20260507070052 | 48 | 22 | 0.0 | 0.0 | 0.01 | 0.87 | 0.06 | 95 | 1011.8 |
| 20260507065550 | 48 | 22 | 0.0 | 0.0 | 0.01 | 0.87 | 0.06 | 95 | 1011.8 |
| 20260507065050 | 48 | 22 | 0.0 | 0.0 | 0.01 | 0.87 | 0.06 | 95 | 1011.9 |
| 20260507064551 | 48 | 22 | 0.0 | 0.0 | 0.02 | 0.87 | 0.06 | 95 | 1011.8 |
| 20260507064050 | 48 | 22 | 0.0 | 0.0 | 0.02 | 0.87 | 0.06 | 95 | 1011.8 |
| 20260507063551 | 48 | 22 | 0.0 | 0.0 | 0.01 | 0.86 | 0.05 | 95 | 1012.0 |
| 20260507063049 | 48 | 22 | 0.0 | 0.0 | 0.02 | 0.86 | 0.05 | 95 | 1011.9 |
| 20260507062549 | 48 | 22 | 0.0 | 0.0 | 0.02 | 0.86 | 0.05 | 95 | 1011.9 |
| 20260507062052 | 48 | 22 | 0.0 | 0.0 | 0.02 | 0.86 | 0.05 | 94 | 1011.8 |
| 20260507061555 | 48 | 23 | 0.0 | 0.0 | 0.02 | 0.86 | 0.05 | 94 | 1011.8 |
| 20260507061049 | 48 | 23 | 0.0 | 0.0 | 0.02 | 0.86 | 0.05 | 94 | 1011.9 |
| 20260507060548 | 48 | 23 | 0.0 | 2.0 | 0.03 | 0.86 | 0.05 | 94 | 1011.9 |
| 20260507060047 | 48 | 48 | 0.0 | 3.0 | 0.03 | 0.86 | 0.05 | 94 | 1012.0 |
| 20260507055547 | 48 | 355 | 1.0 | 4.0 | 0.03 | 0.86 | 0.05 | 94 | 1012.1 |
| 20260507055047 | 49 | 21 | 1.0 | 6.0 | 0.03 | 0.86 | 0.05 | 94 | 1012.2 |
| 20260507054547 | 49 | 31 | 1.0 | 6.0 | 0.02 | 0.85 | 0.04 | 95 | 1012.3 |
| 20260507054046 | 49 | 44 | 0.0 | 0.0 | 0.02 | 0.85 | 0.04 | 95 | 1012.3 |
| 20260507053547 | 49 | 355 | 0.0 | 0.0 | 0.02 | 0.85 | 0.04 | 95 | 1012.4 |
| 20260507053111 | 49 | 355 | 0.0 | 0.0 | 0.01 | 0.84 | 0.03 | 95 | 1012.3 |
| 20260507052545 | 49 | 355 | 0.0 | 0.0 | 0.02 | 0.84 | 0.03 | 95 | 1012.3 |
| 20260507052046 | 49 | 355 | 0.0 | 0.0 | 0.02 | 0.84 | 0.03 | 95 | 1012.2 |
| 20260507051548 | 49 | 355 | 0.0 | 0.0 | 0.02 | 0.84 | 0.03 | 94 | 1012.2 |
| 20260507051043 | 49 | 355 | 0.0 | 0.0 | 0.02 | 0.84 | 0.03 | 94 | 1012.3 |
| 20260507050543 | 49 | 355 | 0.0 | 0.0 | 0.02 | 0.83 | 0.02 | 94 | 1012.2 |
| 20260507050046 | 49 | 355 | 0.0 | 0.0 | 0.02 | 0.83 | 0.02 | 95 | 1012.2 |
| 20260507045544 | 49 | 355 | 0.0 | 2.0 | 0.02 | 0.83 | 0.02 | 95 | 1012.3 |
| 20260507045044 | 49 | 355 | 0.0 | 3.0 | 0.02 | 0.83 | 0.02 | 94 | 1012.3 |
| 20260507044542 | 49 | 344 | 1.0 | 3.0 | 0.02 | 0.83 | 0.02 | 94 | 1012.3 |
| 20260507044040 | 49 | 40 | 1.0 | 4.0 | 0.03 | 0.83 | 0.02 | 94 | 1012.2 |